sat.trackr.live / text

‹ back to catalog

STARLINK-4664

NORAD 53777 · 2022-111E

PAYLOAD ACTIVE UNKNOWN

§ Identity

Operator
Country
US
Launch date
2022-09-11
Launch site
AFETR
Launch vehicle
Mass (kg)
RCS (m²)

Purposes: comms

External: N2YO · Heavens-Above · Gunter

§ Orbital elements

Epoch: 2026-09-20T22:00:03.000096Z

Period
94.09 min
Inclination
53.1789°
Eccentricity
0.0001275
Mean motion
15.30400682 rev/d
Perigee alt
473.7 km
Apogee alt
475.5 km
Semi-major
6,852.8 km
B*
1.8225e-2
RAAN
114.3977°
Arg perigee
87.5526°
Mean anomaly
28.5969°
Rev number
580

§ Raw data

STARLINK-46641 53777U 22111E   26263.91670139  .00580216  00000+0  18225-1 0  99912 53777  53.1789 114.3977 0001275  87.5526  28.5969 15.30400682  5805

JSON: /api/v1/satellites/53777 · /tle

For live sub-satellite position, see the globe view (requires WebGL).

§ Visibility from observer

Set your observer location to see the next 7 days of passes ≥ 10°. The values pass through the URL so the page stays shareable.

No JS? Fill the form by hand. The geolocation button needs JavaScript.